Location: Sihaung
(22.8641°N, 94.0549°E)
Time: 17:53:15
(UTC+00:00)

SKYMED 2 - Pass Details

Date: 03 March 2021
Orbit: 621 x 623 km, 97.9° (Epoch: 13 April)

Event Time Altitude Azimuth Distance (km) Brightness Sun altitude
Rises 22:55:41 0° 159° (SSE) 2,887 7.3 -16.3°
Reaches altitude 10° 22:57:53 10° 155° (SSE) 1,984 6.5 -15.8°
Maximum altitude 23:02:08 58° 76° (ENE) 728 4.2 -14.8°
Drops below altitude 10° 23:06:22 10° 358° (N) 1,991 6.1 -13.8°
Sets 23:08:35 0° 354° (N) 2,899 6.9 -13.3°
